WetterOnline ( http://www.wetteronline.de )

Wetter aktuell Bad Vilbel

Aktuelles Wetter: Offenbach (119m)

6-stündlich | Neueste Meldungen
Ortszeit Temperatur Wetter
Do, 19.07. 20:00 27.1° C leicht bewölkt
Do, 19.07. 14:00 26.1° C wolkig
Do, 19.07. 8:00 18.3° C leicht bewölkt
Do, 19.07. 2:00 17.5° C wolkig
Mi, 18.07. 20:00 27.4° C fast wolkenlos
Mi, 18.07. 14:00 26.4° C wolkenlos
Mi, 18.07. 8:00 19.8° C leicht bewölkt
Mi, 18.07. 2:00 16.0° C wolkig
Ortszeit Temperatur Wetter
Do, 19.07. 22:30 19.6° C wolkig
Do, 19.07. 22:20 19.6° C wolkig
Do, 19.07. 22:10 20.1° C wolkig
Do, 19.07. 22:00 20.6° C wolkig
Do, 19.07. 21:50 20.6° C wolkig
Do, 19.07. 21:40 21.1° C wolkig
Do, 19.07. 21:30 22.3° C leicht bewölkt
Do, 19.07. 21:00 24.0° C leicht bewölkt
Do, 19.07. 20:30 26.6° C wolkig
Do, 19.07. 20:00 27.1° C leicht bewölkt
Do, 19.07. 19:30 27.6° C wolkig
Ortszeit Relative Feuchte Sichtweite
Do, 19.07. 20:00 28% 55 km
Do, 19.07. 14:00 33% 40 km
Do, 19.07. 8:00 61% 40 km
Do, 19.07. 2:00 66% 40 km
Mi, 18.07. 20:00 30% 65 km
Mi, 18.07. 14:00 33% 30 km
Mi, 18.07. 8:00 67% 35 km
Mi, 18.07. 2:00 93% 19 km
Ortszeit Relative Feuchte Sichtweite
Do, 19.07. 22:30 55% 45 km
Do, 19.07. 22:20 55% -
Do, 19.07. 22:10 52% -
Do, 19.07. 22:00 51% 40 km
Do, 19.07. 21:50 51% -
Do, 19.07. 21:40 47% -
Do, 19.07. 21:30 46% 50 km
Do, 19.07. 21:00 39% 55 km
Do, 19.07. 20:30 29% 60 km
Do, 19.07. 20:00 28% 55 km
Do, 19.07. 19:30 25% 50 km
Ortszeit Niederschlagsmenge Niederschlagsart
Do, 19.07. 20:00 0.0 l/m2 in 12 Std. -
Do, 19.07. 14:00 0.0 l/m2 in 6 Std. -
Do, 19.07. 8:00 0.0 l/m2 in 12 Std. -
Do, 19.07. 2:00 0.0 l/m2 in 6 Std. -
Mi, 18.07. 20:00 0.0 l/m2 in 12 Std. -
Mi, 18.07. 14:00 0.0 l/m2 in 6 Std. -
Mi, 18.07. 8:00 0.0 l/m2 in 12 Std. -
Mi, 18.07. 2:00 0.0 l/m2 in 6 Std. -
Ortszeit Niederschlagsmenge Niederschlagsart
Do, 19.07. 22:30 0.0 l/m2 in 1 Std. -
Do, 19.07. 22:20 keine Meldung -
Do, 19.07. 22:10 keine Meldung -
Do, 19.07. 22:00 0.0 l/m2 in 1 Std. -
Do, 19.07. 21:50 keine Meldung -
Do, 19.07. 21:40 keine Meldung -
Do, 19.07. 21:30 0.0 l/m2 in 1 Std. -
Do, 19.07. 21:00 0.0 l/m2 in 1 Std. -
Do, 19.07. 20:30 0.0 l/m2 in 1 Std. -
Do, 19.07. 20:00 0.0 l/m2 in 1 Std. -
Do, 19.07. 19:30 0.0 l/m2 in 1 Std. -
Ortszeit Stärke Spitze Richtung
km/h Bft. km/h Grad Sektor
Do, 19.07. 20:00 7 2 22 360° N
Do, 19.07. 14:00 9 2 20 310° NW
Do, 19.07. 8:00 7 2 14 30° NO
Do, 19.07. 2:00 6 1 20 10° N
Mi, 18.07. 20:00 4 1 40 300° NW
Mi, 18.07. 14:00 11 2 32 280° W
Mi, 18.07. 8:00 6 1 13 50° NO
Mi, 18.07. 2:00 4 1 14 140° SO
Ortszeit Stärke Spitze Richtung
km/h Bft. km/h Grad Sektor
Do, 19.07. 22:30 4 1 4 160° S
Do, 19.07. 22:20 4 1 - 160° S
Do, 19.07. 22:10 4 1 - 150° SO
Do, 19.07. 22:00 0 0 7 - -
Do, 19.07. 21:50 0 0 - 230° SW
Do, 19.07. 21:40 2 1 - 60° NO
Do, 19.07. 21:30 4 1 7 60° NO
Do, 19.07. 21:00 4 1 14 40° NO
Do, 19.07. 20:30 7 2 14 40° NO
Do, 19.07. 20:00 7 2 18 360° N
Do, 19.07. 19:30 9 2 19 20° N
Ortszeit Untergrenze Bedeckung Gattung
total tief tief mittel hoch
Do, 19.07. 20:00 9000 m 7/8 0/8 - - -
Do, 19.07. 14:00 1800 m 8/8 3/8 - - -
Do, 19.07. 8:00 2700 m 5/8 - - - -
Do, 19.07. 2:00 3000 m 8/8 2/8 - - -
Mi, 18.07. 20:00 2400 m 1/8 1/8 - - -
Mi, 18.07. 14:00 - 0/8 0/8 - - -
Mi, 18.07. 8:00 2400 m 2/8 2/8 - - -
Mi, 18.07. 2:00 2700 m 6/8 6/8 - - -
Ortszeit Bedeckungsgrad in Achtel und Wolkenuntergrenze
Do, 19.07. 22:30 7(8700m) 8(9000m) 8(10500m)
Do, 19.07. 22:20 7(8700m) 8(9000m) 8(10500m)
Do, 19.07. 22:10 7(8400m) 8(9000m) 8(10500m)
Do, 19.07. 22:00 1(8700m) 8(9000m) 8(10500m)
Do, 19.07. 21:50 1(8700m) 8(9000m)
Do, 19.07. 21:40 8(9000m)
Do, 19.07. 21:30 5(10500m)
Do, 19.07. 21:00 5(9000m) 6(9000m) 6(10500m)
Do, 19.07. 20:30 7(9000m) 7(10500m) 7(10500m)
Do, 19.07. 20:00 7(9000m) 7(10500m)
Do, 19.07. 19:30 6(10500m) 7(10500m)
Ortszeit Luftdruck NN (hPa) Tendenz (hPa in 3 Std.)
Do, 19.07. 20:00 1015 - 0,8
Do, 19.07. 14:00 1017 - 1,2
Do, 19.07. 8:00 1019 + 0,3
Do, 19.07. 2:00 1018 + 1,0
Mi, 18.07. 20:00 1015 - 0,7
Mi, 18.07. 14:00 1017 - 0,8
Mi, 18.07. 8:00 1018 + 0,7
Mi, 18.07. 2:00 1017 + 0,9
Ortszeit Luftdruck NN (hPa) Tendenz (hPa in 3 Std.)
Do, 19.07. 22:30 1016 + 0,3
Do, 19.07. 22:20 1016 keine Meldung
Do, 19.07. 22:10 1016 keine Meldung
Do, 19.07. 22:00 1015 - 0,1
Do, 19.07. 21:50 1015 keine Meldung
Do, 19.07. 21:40 1015 keine Meldung
Do, 19.07. 21:30 1015 - 0,4
Do, 19.07. 21:00 1015 - 0,5
Do, 19.07. 20:30 1015 - 0,7
Do, 19.07. 20:00 1015 - 0,8
Do, 19.07. 19:30 1015 - 1,1
Ortszeit Schneehöhe (cm)
Do, 19.07. 20:00 -
Do, 19.07. 14:00 -
Do, 19.07. 8:00 -
Do, 19.07. 2:00 -
Mi, 18.07. 20:00 -
Mi, 18.07. 14:00 -
Mi, 18.07. 8:00 -
Mi, 18.07. 2:00 -
Ortszeit Schneehöhe (cm)
Do, 19.07. 22:30 -
Do, 19.07. 22:20 -
Do, 19.07. 22:10 -
Do, 19.07. 22:00 -
Do, 19.07. 21:50 -
Do, 19.07. 21:40 -
Do, 19.07. 21:30 -
Do, 19.07. 21:00 -
Do, 19.07. 20:30 -
Do, 19.07. 20:00 -
Do, 19.07. 19:30 -
Link zu dieser Seite / Seite empfehlen

Das Wetter in ...